Change the Weather History Date:

Thursday, January 9, 2014

  Actual Average Record
Temperature  
Mean Temperature 10 °F 17 °F  
Max Temperature 18 °F 26 °F 53 °F (1965)
Min Temperature 2 °F 7 °F -24 °F (1968)
Degree Days  
Heating Degree Days 55 48  
Month to date heating degree days 512 430  
Since 1 July heating degree days 3770 3578  
Cooling Degree Days 0 0  
Month to date cooling degree days 0  
Year to date cooling degree days 0  
Moisture  
Dew Point 3 °F    
Average Humidity 71    
Maximum Humidity 87    
Minimum Humidity 54    
Precipitation  
Precipitation T in 0.07 in 2.30 in (1978)
Month to date precipitation 0.65 0.65  
Year to date precipitation 0.65 0.65  
Sea Level Pressure  
Sea Level Pressure 30.55 in    
Wind  
Wind Speed 4 mph (WNW)    
Max Wind Speed 18 mph    
Max Gust Speed 25 mph    
Visibility 10 miles    
Events      
T = Trace of Precipitation, MM = Missing Value Source: NWS Daily Summary

Daily Weather History Graph

Daily Weather History Graph

Search for Another Location

Airport or City:

Trip Planner

Search our weather history database for the weather conditions in past years. The results will help you decide how hot, cold, wet, or windy it might be!

Date:

Astronomy

Jan. 09, 2014 Rise Set
Actual Time 7:24 AM EST 4:30 PM EST
Civil Twilight 6:52 AM EST 5:02 PM EST
Nautical Twilight 6:16 AM EST 5:39 PM EST
Astronomical Twilight 5:41 AM EST 6:14 PM EST
Moon 12:00 PM EST (1/9) 1:23 AM EST (1/9)
Length of Visible Light 10h 10m
Length of Day
9h 05m
Waxing Gibbous, 66% of the Moon is Illuminated
Jan 9
Waxing Gibbous
Jan 15
Full
Jan 24
Last Quarter
Jan 30
New
Feb 6
First Quarter

Hourly Weather History & Observations

Time (EST) Temp. Windchill Dew Point Humidity Pressure Visibility Wind Dir Wind Speed Gust Speed Precip Events Conditions
12:51 AM 6.1 °F - 1.0 °F 80% 30.42 in 10.0 mi Calm Calm - N/A   Overcast
1:48 AM 5.0 °F - 1.4 °F 85% 30.34 in 10.0 mi Calm Calm - N/A   Overcast
1:51 AM 3.9 °F - -0.0 °F 84% 30.43 in 10.0 mi Calm Calm - N/A   Overcast
2:11 AM 3.2 °F - -0.4 °F 85% 30.34 in 10.0 mi Calm Calm - N/A   Overcast
2:51 AM 3.9 °F -6.9 °F -0.0 °F 84% 30.44 in 10.0 mi South 5.8 mph - N/A   Overcast
3:51 AM 6.1 °F - 1.0 °F 80% 30.45 in 10.0 mi Calm Calm - N/A   Overcast
4:51 AM 5.0 °F -4.1 °F 1.0 °F 84% 30.46 in 10.0 mi West 4.6 mph - N/A   Overcast
5:51 AM 10.9 °F 2.9 °F 5.0 °F 77% 30.48 in 10.0 mi WSW 4.6 mph - N/A   Overcast
6:51 AM 12.0 °F 4.1 °F 5.0 °F 73% 30.50 in 10.0 mi WSW 4.6 mph - N/A   Overcast
7:51 AM 12.9 °F - 6.1 °F 74% 30.54 in 9.0 mi Calm Calm - N/A   Overcast
8:51 AM 12.9 °F 5.2 °F 6.1 °F 74% 30.58 in 7.0 mi WNW 4.6 mph - N/A   Overcast
9:51 AM 14.0 °F 6.5 °F 6.1 °F 71% 30.62 in 10.0 mi NNW 4.6 mph - N/A   Overcast
10:51 AM 15.1 °F 2.5 °F 6.1 °F 68% 30.62 in 9.0 mi NW 10.4 mph 18.4 mph 0.00 in   Overcast
11:04 AM 15.8 °F 6.1 °F 3.2 °F 58% 30.54 in 10.0 mi NNW 6.9 mph 19.6 mph N/A   Mostly Cloudy
11:51 AM 16.0 °F 0.6 °F 3.0 °F 57% 30.60 in 10.0 mi NW 16.1 mph 25.3 mph N/A   Clear
12:51 PM 16.0 °F 4.4 °F 3.0 °F 57% 30.62 in 10.0 mi NW 9.2 mph 16.1 mph N/A   Clear
1:51 PM 18.0 °F 7.7 °F 3.9 °F 54% 30.61 in 10.0 mi NNW 8.1 mph - N/A   Clear
2:51 PM 18.0 °F 9.8 °F 3.0 °F 52% 30.63 in 10.0 mi Variable 5.8 mph - N/A   Clear
3:51 PM 17.1 °F - 3.9 °F 56% 30.63 in 10.0 mi Calm Calm - N/A   Clear
4:51 PM 12.0 °F 5.9 °F 3.0 °F 67% 30.64 in 10.0 mi South 3.5 mph - N/A   Clear
6:51 PM 7.0 °F - 1.9 °F 80% 30.65 in 10.0 mi Calm Calm - N/A   Clear
7:51 PM 7.0 °F - 1.0 °F 77% 30.64 in 10.0 mi Calm Calm - N/A   Clear
8:51 PM 6.1 °F - 1.0 °F 80% 30.64 in 10.0 mi Calm Calm - N/A   Clear
9:51 PM 3.0 °F - -0.0 °F 87% 30.63 in 10.0 mi Calm Calm - N/A   Clear
10:51 PM 3.0 °F - -0.0 °F 87% 30.62 in 9.0 mi Calm Calm - N/A   Clear
11:51 PM 1.9 °F - -0.0 °F 91% 30.59 in 8.0 mi Calm Calm - N/A   Clear